Previsão horária em Judyty

Hoje, 23 Junho, Quarta-feira

Tempo Temperatura Precipitação Vento Pressão Humidade
00:00 +18°C° 0.1 mm 2 m/s 754 mmHg 97%
01:00 +17°C° 0 mm 2 m/s 754 mmHg 97%
02:00 +17°C° 0 mm 2 m/s 755 mmHg 97%
03:00 +17°C° 0 mm 2 m/s 755 mmHg 96%
04:00 +16°C° 0 mm 2 m/s 755 mmHg 96%
05:00 +18°C° 0 mm 2 m/s 755 mmHg 92%
06:00 +19°C° 0 mm 2 m/s 756 mmHg 88%
07:00 +20°C° 0 mm 2 m/s 756 mmHg 83%
08:00 +21°C° 0 mm 2 m/s 756 mmHg 79%
09:00 +22°C° 0 mm 3 m/s 757 mmHg 74%
10:00 +24°C° 0 mm 3 m/s 757 mmHg 69%
11:00 +25°C° 0 mm 3 m/s 757 mmHg 69%
12:00 +25°C° 0 mm 3 m/s 757 mmHg 68%
13:00 +26°C° 0 mm 3 m/s 757 mmHg 67%
14:00 +25°C° 0 mm 3 m/s 758 mmHg 69%
15:00 +25°C° 0 mm 3 m/s 758 mmHg 71%
16:00 +24°C° 0 mm 3 m/s 758 mmHg 73%
17:00 +22°C° 0 mm 3 m/s 758 mmHg 76%
18:00 +21°C° 0 mm 3 m/s 758 mmHg 79%
19:00 +20°C° 0 mm 3 m/s 758 mmHg 82%
20:00 +19°C° 0 mm 3 m/s 758 mmHg 83%
21:00 +18°C° 0 mm 2 m/s 758 mmHg 84%
22:00 +17°C° 0 mm 2 m/s 759 mmHg 84%
23:00 +16°C° 0 mm 2 m/s 759 mmHg 85%

Amanhã, 24 Junho, Quinta-feira

Tempo Temperatura Precipitação Vento Pressão Humidade
00:00 +16°C° 0 mm 2 m/s 759 mmHg 86%
01:00 +15°C° 0 mm 2 m/s 759 mmHg 87%
02:00 +15°C° 0 mm 2 m/s 758 mmHg 87%
03:00 +15°C° 0 mm 2 m/s 758 mmHg 87%
04:00 +15°C° 0 mm 2 m/s 758 mmHg 86%
05:00 +16°C° 0 mm 2 m/s 758 mmHg 81%
06:00 +18°C° 0 mm 2 m/s 758 mmHg 76%
07:00 +20°C° 0 mm 2 m/s 758 mmHg 71%
08:00 +21°C° 0 mm 2 m/s 758 mmHg 68%
09:00 +23°C° 0 mm 2 m/s 758 mmHg 66%
10:00 +25°C° 0 mm 2 m/s 758 mmHg 63%
11:00 +25°C° 0 mm 2 m/s 757 mmHg 63%
12:00 +26°C° 0 mm 2 m/s 757 mmHg 63%
13:00 +27°C° 0 mm 2 m/s 757 mmHg 64%
14:00 +26°C° 0 mm 3 m/s 756 mmHg 66%
15:00 +26°C° 0 mm 3 m/s 756 mmHg 68%
16:00 +26°C° 0 mm 3 m/s 755 mmHg 70%
17:00 +24°C° 1.4 mm 3 m/s 755 mmHg 77%
18:00 +21°C° 1.4 mm 3 m/s 754 mmHg 84%
19:00 +19°C° 1.4 mm 3 m/s 754 mmHg 91%
20:00 +19°C° 0.9 mm 3 m/s 754 mmHg 92%
21:00 +18°C° 0.9 mm 2 m/s 754 mmHg 93%
22:00 +18°C° 0.9 mm 1 m/s 754 mmHg 94%
23:00 +18°C° 0 mm 1 m/s 753 mmHg 94%

Depois de amanhã, 25 Junho, Sexta-feira

Tempo Temperatura Precipitação Vento Pressão Humidade
00:00 +18°C° 0 mm 1 m/s 753 mmHg 94%
01:00 +18°C° 0 mm 1 m/s 753 mmHg 94%
02:00 +18°C° 0 mm 1 m/s 753 mmHg 95%
03:00 +18°C° 0 mm 1 m/s 753 mmHg 95%
04:00 +18°C° 0 mm 1 m/s 753 mmHg 96%
05:00 +19°C° 0 mm 1 m/s 753 mmHg 94%
06:00 +19°C° 0 mm 2 m/s 753 mmHg 92%
07:00 +20°C° 0 mm 2 m/s 753 mmHg 90%
08:00 +21°C° 0 mm 3 m/s 753 mmHg 86%
09:00 +22°C° 0 mm 3 m/s 753 mmHg 82%
10:00 +22°C° 0 mm 3 m/s 754 mmHg 78%
11:00 +24°C° 0.1 mm 3 m/s 754 mmHg 76%
12:00 +24°C° 0.1 mm 3 m/s 754 mmHg 75%
13:00 +24°C° 0.1 mm 3 m/s 754 mmHg 73%
14:00 +24°C° 0.1 mm 3 m/s 754 mmHg 75%
15:00 +22°C° 0.1 mm 3 m/s 754 mmHg 77%
16:00 +21°C° 0.1 mm 3 m/s 754 mmHg 79%
17:00 +20°C° 0 mm 3 m/s 754 mmHg 81%
18:00 +19°C° 0 mm 3 m/s 754 mmHg 83%
19:00 +18°C° 0 mm 3 m/s 754 mmHg 86%
20:00 +18°C° 0 mm 3 m/s 754 mmHg 86%
21:00 +18°C° 0 mm 3 m/s 754 mmHg 87%
22:00 +17°C° 0 mm 3 m/s 754 mmHg 88%
23:00 +17°C° 0 mm 3 m/s 755 mmHg 90%

26 Junho, Sábado

Tempo Temperatura Precipitação Vento Pressão Humidade
00:00 +16°C° 0 mm 3 m/s 755 mmHg 92%
01:00 +16°C° 0 mm 3 m/s 755 mmHg 94%
02:00 +16°C° 0 mm 3 m/s 755 mmHg 94%
03:00 +14°C° 0 mm 3 m/s 755 mmHg 95%
04:00 +14°C° 0 mm 3 m/s 755 mmHg 96%
05:00 +16°C° 0 mm 3 m/s 755 mmHg 92%
06:00 +17°C° 0 mm 4 m/s 755 mmHg 88%
07:00 +18°C° 0 mm 4 m/s 756 mmHg 84%
08:00 +19°C° 0 mm 4 m/s 756 mmHg 79%
09:00 +20°C° 0 mm 5 m/s 756 mmHg 75%
10:00 +21°C° 0 mm 5 m/s 756 mmHg 70%
11:00 +21°C° 0 mm 5 m/s 756 mmHg 68%
12:00 +22°C° 0 mm 5 m/s 757 mmHg 65%
13:00 +23°C° 0 mm 5 m/s 757 mmHg 62%
14:00 +23°C° 0 mm 5 m/s 757 mmHg 63%
15:00 +22°C° 0 mm 5 m/s 757 mmHg 64%
16:00 +22°C° 0 mm 4 m/s 757 mmHg 65%
17:00 +21°C° 0 mm 4 m/s 757 mmHg 71%
18:00 +20°C° 0 mm 3 m/s 757 mmHg 77%
19:00 +19°C° 0 mm 2 m/s 757 mmHg 84%
20:00 +17°C° 0 mm 2 m/s 757 mmHg 87%
21:00 +16°C° 0 mm 2 m/s 758 mmHg 90%
22:00 +15°C° 0 mm 2 m/s 758 mmHg 93%
23:00 +14°C° 0 mm 2 m/s 758 mmHg 93%

27 Junho, Domingo

Tempo Temperatura Precipitação Vento Pressão Humidade
00:00 +14°C° 0 mm 2 m/s 758 mmHg 92%
01:00 +14°C° 0 mm 2 m/s 758 mmHg 92%
02:00 +14°C° 0 mm 2 m/s 758 mmHg 92%
03:00 +14°C° 0 mm 2 m/s 758 mmHg 93%
04:00 +14°C° 0 mm 2 m/s 758 mmHg 93%
05:00 +14°C° 0 mm 3 m/s 758 mmHg 87%
06:00 +17°C° 0 mm 3 m/s 758 mmHg 80%
07:00 +19°C° 0 mm 3 m/s 758 mmHg 74%
08:00 +20°C° 0 mm 3 m/s 759 mmHg 69%
09:00 +21°C° 0 mm 3 m/s 759 mmHg 64%
10:00 +22°C° 0 mm 3 m/s 759 mmHg 59%
11:00 +24°C° 0 mm 3 m/s 759 mmHg 57%
12:00 +24°C° 0 mm 3 m/s 759 mmHg 56%
13:00 +25°C° 0 mm 3 m/s 758 mmHg 54%
14:00 +25°C° 0 mm 2 m/s 758 mmHg 55%
15:00 +24°C° 0 mm 2 m/s 758 mmHg 56%
16:00 +24°C° 0 mm 2 m/s 758 mmHg 57%
17:00 +23°C° 0 mm 2 m/s 758 mmHg 64%
18:00 +22°C° 0 mm 1 m/s 758 mmHg 71%
19:00 +21°C° 0 mm 1 m/s 758 mmHg 78%
20:00 +20°C° 0 mm 1 m/s 758 mmHg 81%
21:00 +18°C° 0 mm 1 m/s 759 mmHg 85%
22:00 +16°C° 0 mm 1 m/s 759 mmHg 88%
23:00 +16°C° 0 mm 1 m/s 759 mmHg 88%

28 Junho, Segunda-feira

Tempo Temperatura Precipitação Vento Pressão Humidade
00:00 +15°C° 0 mm 1 m/s 759 mmHg 89%
01:00 +15°C° 0 mm 1 m/s 759 mmHg 89%
02:00 +15°C° 0 mm 1 m/s 759 mmHg 89%
03:00 +15°C° 0 mm 1 m/s 759 mmHg 89%
04:00 +15°C° 0 mm 2 m/s 759 mmHg 89%
05:00 +17°C° 0 mm 2 m/s 759 mmHg 84%
06:00 +19°C° 0 mm 2 m/s 759 mmHg 78%
07:00 +21°C° 0 mm 2 m/s 759 mmHg 73%
08:00 +23°C° 0 mm 2 m/s 759 mmHg 68%
09:00 +24°C° 0 mm 2 m/s 759 mmHg 64%
10:00 +26°C° 0 mm 2 m/s 759 mmHg 60%
11:00 +26°C° 0.2 mm 2 m/s 759 mmHg 58%
12:00 +26°C° 0.2 mm 2 m/s 759 mmHg 57%
13:00 +27°C° 0.2 mm 2 m/s 758 mmHg 55%
14:00 +27°C° 0 mm 2 m/s 758 mmHg 56%
15:00 +27°C° 0 mm 2 m/s 758 mmHg 56%
16:00 +27°C° 0 mm 2 m/s 758 mmHg 56%
17:00 +26°C° 0.1 mm 1 m/s 758 mmHg 62%
18:00 +25°C° 0.1 mm 1 m/s 758 mmHg 68%
19:00 +22°C° 0.1 mm 0 m/s 757 mmHg 74%
20:00 +22°C° 0 mm 1 m/s 757 mmHg 77%
21:00 +21°C° 0 mm 1 m/s 757 mmHg 80%
22:00 +20°C° 0 mm 1 m/s 758 mmHg 83%
23:00 +20°C° 0 mm 1 m/s 758 mmHg 84%
Mostrar mais

Necessitamos do seu Consentimento

A Meteoprog e os seus Fornecedores de Serviços podem armazenar e aceder a dados pessoais como cookies, identificadores do dispositivo ou outras tecnologias semelhantes existentes no seu dispositivo e processar estes dados para personalizar conteúdos e anúncios, assim como funcionalidades nas redes sociais e análise de tráfego.

  • Armazenar e/ou aceder a informações no seu dispositivo

    Os cookies, identificadores do dispositivo ou outras informações podem ser armazenados ou acedidos no seu dispositivo, para os fins acima indicados.

  • Anúncios e conteúdos personalizados, medição de anúncios e conteúdos, dados sobre o público-alvo e desenvolvimento de produtos

    Os anúncios e os conteúdos podem ser personalizados com base num perfil. Podem ser adicionados dados adicionais para uma maior personalização dos anúncios e dos conteúdos. A eficácia dos anúncios e dos conteúdos pode ser medida. Podem ser obtidas informações sobre o público que visualizou os anúncios e os conteúdos. Estes dados podem ser usados para desenvolver ou melhorar sistemas, softwares ou a experiência do utilizador.

Ao clicar em "Eu concordo”, permitirá o uso de cookies, identificadores do dispositivo e web beacons mencionados ou outras tecnologias semelhantes. As configurações do navegador do seu dispositivo podem ser alteradas.

Para certos fins, podem ser invocados interesses legítimos ao invés de consentimento. Pode ler mais informação sobre este assunto na nossa Política de Privacidade e Cookies.